x

Orange Beach - 44 Nm Se Of Mobile, Al (42012) Wave Buoy

10:50am - Sun 20th Apr 2014 All times are CDT. -5 hours from GMT.

  • Sig Wave height 2.0ft
  • Swell Direction
  • Peak Period 5s
  • Average Period 3s
  • Wind
    16mph, 20mph gusts
  • Sea Temp 66°f
  • Air Temp 61°f
  • Sea Pressure 1022mb
  • Orange Beach - 44 Nm Se Of Mobile, Al
  • Orange Beach - 44 Nm Se Of Mobile, Al

More Historic Weather Station data

Upgrade to MSW Pro to gain access to the past 30 days of data for over 8000 Wavebouys and Weather Stations around the globe.

Join Pro

Comparision Forecast

View Surf forecast
   
Sun 04/20 10:50am 2ft 5s 3s 16 20 mph 1022mb 66f 61f
9:50am 2ft 5s 4s 16 20 mph 1021.8mb 66f 60f
8:50am 2ft 4s 4s 11 13 mph 1022mb 66f 60f
7:50am 2ft 4s 3s 13 16 mph 1021.6mb 66f 61f
6:50am 2ft 4s 3s 16 18 mph 1021mb 66f 62f
5:50am 2ft 4s 4s 13 16 mph 1020.3mb 66f 62f
4:50am 2.5ft 4s 4s 11 16 mph 1019.7mb 66f 63f
3:50am 2.5ft 4s 4s 16 18 mph 1018.7mb 66f 64f
2:50am 2.5ft 4s 3s 18 22 mph 1018.7mb 66f 65f
1:50am 2ft 3s 3s 18 22 mph 1018.7mb 66f 66f
12:50am 1.3ft 3s 3s 18 22 mph 1019.3mb 66f 67f
Sat 04/19 11:50pm 1ft 3s 3s 11 13 mph 1019.3mb 66f 67f
10:50pm 1ft 4s 3s 11 13 mph 1019.5mb 66f 67f
9:50pm 1ft 3s 3s 9 11 mph 1019.6mb 67f 67f
8:50pm 1.3ft 3s 3s 9 13 mph 1018.9mb 67f 69f
7:50pm 1.6ft 3s 3s 9 11 mph 1018.1mb 67f 70f
6:50pm 1.6ft 3s 3s 13 16 mph 1017.1mb 67f 71f
5:50pm 2ft 4s 3s 9 11 mph 1016.5mb 67f 71f
4:50pm 2ft 4s 3s 9 11 mph 1016.3mb 67f 71f
3:50pm 2ft 4s 3s 7 9 mph 1016.3mb 67f 70f
2:50pm 2ft 4s 3s 9 11 mph 1017.1mb 67f 70f
1:50pm 2ft 4s 3s 11 16 mph 1017.5mb 66f 68f
12:50pm 1.6ft 3s 3s 11 13 mph 1017.9mb 66f 67f
11:50am 2.5ft 4s 4s 13 18 mph 1018.4mb 66f 65f
10:50am 2.5ft 4s 4s 18 22 mph 1019mb 65f 62f
9:50am 3ft 4s 4s 18 20 mph 1019.1mb 65f 60f
8:50am 3ft 4s 4s 22 25 mph 1018.7mb 65f 59f
7:50am 3.5ft 4s 4s 22 27 mph 1018.4mb 65f 58f
6:50am 3.5ft 4s 4s 27 29 mph 1018.2mb 65f 58f
5:50am 3ft 4s 4s 22 27 mph 1017.2mb 65f 58f
4:50am 3.5ft 4s 4s 22 27 mph 1016.2mb 65f 59f
3:50am 3ft 3s 4s 22 27 mph 1016.5mb 65f 59f
2:50am 2.5ft 7s 4s 22 27 mph 1017.3mb 65f 60f
1:50am 3ft 3s 4s 18 22 mph 1017.5mb 65f 60f
12:50am 3.5ft 3s 4s 20 25 mph 1017.5mb 65f 60f
Fri 04/18 11:50pm 3.5ft 4s 4s 20 25 mph 1017.6mb 65f 59f
10:50pm 4ft 4s 4s 25 29 mph 1017.6mb 65f 60f
9:50pm 4ft 4s 4s 25 31 mph 1017.2mb 65f 60f
8:50pm 4.5ft 8s 4s 27 31 mph 1016.5mb 66f 60f
7:50pm 4.5ft 7s 5s 25 29 mph 1016mb 66f 61f
6:50pm 4.5ft 7s 5s 25 31 mph 1015.3mb 66f 61f
5:50pm 5ft 7s 5s 25 31 mph 1015mb 66f 61f
4:50pm 6ft 8s 5s 25 29 mph 1014.8mb 66f 62f
3:50pm 6ft 8s 5s 22 27 mph 1015mb 65f 61f
2:50pm 6ft 7s 5s 25 31 mph 1014.6mb 65f 62f
1:50pm 6.5ft 8s 5s 27 31 mph 1014.6mb 65f 62f
12:50pm 7ft 7s 5s 27 31 mph 1014.6mb 65f 62f
11:50am 6.5ft 7s 5s 27 31 mph 1015.7mb 65f 62f
10:50am 7ft 7s 5s 34 40 mph 1015.1mb 66f 63f
9:50am 6ft 7s 5s 31 38 mph 1015.1mb 66f 63f
8:50am 6ft 7s 5s 31 38 mph 1015.3mb 65f 62f
7:50am 5.5ft 7s 5s 29 36 mph 1015.6mb 66f 62f
6:50am 6ft 7s 5s 29 34 mph 1015.4mb 66f 63f
5:50am 7ft 7s 5s 25 31 mph 1015.6mb 66f 63f
4:50am 6.5ft 7s 5s 27 31 mph 1015.6mb 66f 64f
3:50am 6ft 6s 5s 27 31 mph 1015.8mb 66f 64f
2:50am 5.5ft 7s 5s 27 31 mph 1016.8mb 66f 64f
1:50am 5ft 7s 5s 25 29 mph 1018.2mb 66f 63f
12:50am 4.5ft 7s 5s 25 29 mph 1019.4mb 66f 63f
Thu 04/17 11:50pm 4.5ft 7s 5s 25 29 mph 1020mb 66f 63f
10:50pm 4.5ft 8s 5s 20 22 mph 1021.2mb 66f 63f
9:50pm 5ft 8s 5s 20 22 mph 1021.4mb 66f 63f
8:50pm 4.5ft 7s 5s 20 25 mph 1020.8mb 66f 66f
7:50pm 4.5ft 8s 5s 18 20 mph 1020.1mb 66f 67f
6:50pm 4.5ft 8s 6s 9 11 mph 1020.1mb 66f 67f
5:50pm 4.5ft 7s 5s 9 11 mph 1020.7mb 66f 66f
4:50pm 4.5ft 6s 5s 13 18 mph 1021mb 66f 64f
3:50pm 5ft 6s 5s 13 18 mph 1020.7mb 66f 65f
2:50pm 5.5ft 8s 5s 18 20 mph 1021.2mb 66f 63f
1:50pm 5ft 6s 5s 18 22 mph 1022mb 66f 62f
12:50pm 6ft 7s 5s 20 25 mph 1022.3mb 66f 61f
11:50am 6ft 6s 5s 22 27 mph 1022.9mb 66f 61f
10:50am 6.5ft 8s 5s 27 29 mph 1023mb 66f 60f
9:50am 6.5ft 7s 5s 25 31 mph 1023.2mb 66f 61f
8:50am 6.5ft 7s 5s 25 29 mph 1022.4mb 66f 61f
7:50am 6ft 7s 5s 27 31 mph 1021.6mb 66f 61f
6:50am 6ft 6s 5s 27 31 mph 1020.9mb 66f 62f
5:50am 5ft 5s 5s 25 29 mph 1020.7mb 66f 63f
4:50am 4ft 5s 4s 20 27 mph 1020.5mb 66f 64f
3:50am 2.5ft 4s 4s 18 22 mph 1020.5mb 66f 64f
2:50am 2.5ft 5s 4s 18 20 mph 1020.7mb 66f 63f
1:50am 2.5ft 4s 4s 16 20 mph 1020.9mb 66f 63f
12:50am 2ft 3s 4s 13 18 mph 1021.1mb 66f 62f
Wed 04/16 11:50pm 2ft 5s 4s 13 18 mph 1021.3mb 66f 62f
10:50pm 2ft 5s 4s 13 16 mph 1021.8mb 66f 62f
9:50pm 2ft 5s 4s 13 16 mph 1021.3mb 66f 61f
8:50pm 2ft 5s 4s 9 11 mph 1021.2mb 66f 60f
7:50pm 2.5ft 5s 4s 7 9 mph 1021.1mb 66f 60f
6:50pm 2.5ft 6s 4s 11 13 mph 1020.9mb 66f 60f
5:50pm 2.5ft 6s 4s 11 16 mph 1020.8mb 66f 59f
4:50pm 2.5ft 5s 4s 13 16 mph 1020.6mb 66f 58f